Flag for U.S.A. Weather past 2 weeks in Atlanta, Georgia, U.S.A.

Now
36 °F

Passing clouds.


Feels Like: 32 °F
Forecast: 33 / 46 °F
Wind: 5 mph from West

Location: Fulton County Airport-Brown Field

Current Time: Jan 26, 2015 at 8:10:41 PM

Latest Report: Jan 26, 2015 at 7:53 PM


Visibility: 10 mi

Pressure: 29.95 "Hg

Humidity: 70%

Dew point: 27 °F

Location of AtlantaLocation

Historic Weather in Atlanta — Graph

°F

Atlanta temperature yesterday

Maximum temperature yesterday: 59 °F (at 3:53 PM)
Minimum temperature yesterday: 29 °F (at 2:53 AM)
Average temperature yesterday: 44 °F

Past Weeks' High & Low Weather Summary

 TemperatureHumidityPressure
High66 °F (Jan 19, 3:53 PM)97% (Jan 12, 12:53 AM)30.46 "Hg (Jan 12, 12:53 AM)
Low27 °F (Jan 17, 5:53 AM)16% (Jan 19, 3:53 PM)29.73 "Hg (Jan 26, 1:53 AM)
Average43 °F72%30.10 "Hg
* Reported Jan 11 6:53 PM — Jan 26 6:53 PM, Atlanta, Weather by CustomWeather, © 2014

Note: Actual official high and low records may vary slightly from our data, if they occured in-between our weather recording intervals... More about our weather records

Advertising

Atlanta weather history for previous 24 hours

 ConditionsComfort  
Time TempWeatherWind HumidityBarometerVisibility
6:53 PM
Jan 26
37 °FPassing clouds.12 mph67%29.93 "Hg10 mi
5:53 PM39 °FOvercast.12 mph65%29.91 "Hg10 mi
5:00 PM39 °FOvercast.13 mph65%29.90 "Hg10 mi
3:53 PM39 °FMostly cloudy.15 mph67%29.89 "Hg10 mi
2:53 PM38 °FOvercast.17 mph73%29.89 "Hg10 mi
1:53 PM41 °FOvercast.20 mph65%29.87 "Hg10 mi
12:53 PM42 °FOvercast.17 mph71%29.87 "Hg10 mi
12:02 PM43 °FMore clouds than sun.9 mph71%29.87 "Hg10 mi
11:53 AM43 °FMostly cloudy.13 mph74%29.87 "Hg10 mi
10:53 AM42 °FLight rain. Overcast.15 mph82%29.87 "Hg10 mi
9:53 AM44 °FMostly cloudy.14 mph79%29.83 "Hg10 mi
8:53 AM44 °FMostly cloudy.9 mph79%29.81 "Hg10 mi
7:53 AM44 °FOvercast.14 mph79%29.78 "Hg10 mi
6:53 AM45 °FOvercast.9 mph76%29.77 "Hg10 mi
5:53 AM44 °FMostly cloudy.8 mph82%29.75 "Hg10 mi
4:53 AM44 °FOvercast.8 mph79%29.74 "Hg10 mi
3:53 AM43 °FPassing clouds.8 mph82%29.74 "Hg10 mi
2:53 AM44 °FMostly cloudy.10 mph82%29.73 "Hg10 mi
1:53 AM44 °FPassing clouds.6 mph85%29.73 "Hg10 mi
12:53 AM44 °FOvercast.7 mph89%29.73 "Hg10 mi
11:53 PM
Jan 25
44 °FPassing clouds.No wind89%29.75 "Hg10 mi
10:53 PM46 °FLight rain. Mostly cloudy.No wind86%29.75 "Hg10 mi
9:53 PM51 °FLight rain. Mostly cloudy.5 mph54%29.75 "Hg10 mi
8:53 PM52 °FMostly cloudy.No wind50%29.75 "Hg10 mi
Weather by CustomWeather, © 2014

See weather overviewHow to use our weather pages